[[{"header":{"parameterUnit":"m.s-1","parameterCategory":1,"la1":30.2991,"la2":30.254,"lo1":-89.0895,"lo2":-89.0444,"dy":0.0017,"dx":0.0017,"nx":28,"ny":28,"refTime":"2026-03-03T09:00:00:Z","depth":0,"parameterNumber":2,"parameterNumberName":"U-component_of_WINDS"},"data":[0,0,0,0,0,0,0,0,0,0,0,0,0,0,0,0,0,0,0,0,0,0,0,0,0,0,0,0,0,0,0,0,0,0,0,0,0,0,0,0,0,0,0,0,0,0,0,0,0,0,0,0,0,0,0,0,0,0,-5.2028,-5.2028,0,-5.2067,-5.2067,-5.2068,-5.1988,-5.1986,-5.1983,-5.1981,-5.2021,-5.2024,-5.2028,0,0,0,0,0,0,0,0,0,0,0,0,0,-5.1885,-5.1888,-5.2028,-5.2028,-5.2029,-5.2067,-5.2067,-5.2068,-5.1989,-5.1986,-5.1982,-5.198,-5.202,-5.2024,-5.2028,0,0,0,0,0,0,0,0,0,0,0,0,0,-5.1938,-5.1889,-5.2027,-5.1994,-5.1991,-5.2067,-5.2068,-5.2068,-5.1989,-5.1986,-5.1982,-5.1978,-5.2018,-5.2024,-5.2029,-5.2139,0,0,-5.2045,-5.2047,0,0,0,0,0,0,0,0,-5.1935,-5.1943,-5.1998,-5.1996,-5.1993,-5.2019,-5.2032,-5.2092,-5.199,-5.199,-5.1981,-5.1976,-5.2023,-5.2028,-5.2044,-5.2141,-5.2143,-5.2045,-5.2048,-5.2051,-5.2052,0,0,0,0,0,0,0,-5.1932,-5.1941,-5.2043,-5.1999,-5.1996,-5.1977,-5.198,-5.2043,-5.2028,-5.199,-5.1984,-5.199,-5.2021,-5.2039,-5.2044,-5.2143,-5.2045,-5.205,-5.2053,-5.2055,-5.2334,-5.2338,0,0,0,0,0,0,-5.1932,-5.1939,-5.2042,-5.2044,-5.1954,-5.1983,-5.1986,-5.2015,-5.2027,-5.2025,-5.1993,-5.1986,-5.2032,-5.2038,-5.2045,-5.2175,-5.2051,-5.2056,-5.2059,-5.233,-5.2335,-5.234,0,0,0,0,0,0,-5.1929,-5.1942,-5.204,-5.199,-5.2001,-5.1989,-5.2022,-5.2017,-5.2035,-5.203,-5.2027,-5.2014,-5.2029,-5.2038,-5.2117,-5.2175,-5.2058,-5.2063,-5.2325,-5.2331,-5.2337,-5.2436,0,0,0,0,0,0,-5.1926,-5.1941,-5.1983,-5.1992,-5.2004,-5.2111,-5.2025,-5.2021,-5.2044,-5.2035,-5.2048,-5.2047,-5.2027,-5.2109,-5.2122,-5.218,-5.2067,-5.2319,-5.2328,-5.2335,-5.2427,-5.2445,-5.246,0,0,0,0,0,-5.1921,-5.2009,-5.1985,-5.1998,-5.2055,-5.2114,-5.2121,-5.2096,-5.2049,-5.2091,-5.2088,-5.2046,-5.2168,-5.2118,-5.2131,-5.2193,-5.2315,-5.2325,-5.2335,-5.242,-5.2441,-5.2459,0,0,0,0,0,0,-5.2006,-5.2009,-5.1983,-5.2076,-5.2096,-5.21,-5.2152,-5.212,-5.2153,-5.2143,-5.2111,-5.2115,-5.2199,-5.2204,-5.2149,-5.2301,-5.2234,-5.2246,-5.2294,-5.2314,-5.233,-5.2326,-5.2071,0,0,0,0,0,-5.2036,-5.2084,-5.2084,-5.2166,-5.2177,-5.2164,-5.2188,-5.2168,-5.2186,-5.2194,-5.2196,-5.2216,-5.2259,-5.2287,-5.2326,-5.2429,-5.243,-5.2478,-5.2494,-5.2507,-5.2518,-5.2573,-5.2593,-5.2371,-5.2371,-5.2371,0,0,-5.2098,-5.2106,-5.2137,-5.2184,-5.2196,-5.2246,-5.2171,-5.2226,-5.2263,-5.2202,-5.2276,-5.2279,-5.2299,-5.2391,-5.2431,-5.2397,-5.258,-5.252,-5.253,-5.2533,-5.2585,-5.2606,-5.2624,-5.2378,-5.2376,-5.2375,0,0,-5.2235,-5.2247,-5.2316,-5.2331,-5.2351,-5.2342,-5.2359,-5.237,-5.2369,-5.2443,-5.2399,-5.2443,-5.2517,-5.2533,-5.2551,-5.2698,-5.2661,-5.2712,-5.2796,-5.285,-5.2867,-5.2883,-5.2934,-5.2953,-5.2723,-5.2724,-5.2724,0,-5.2309,-5.2382,-5.2356,-5.2415,-5.2437,-5.2386,-5.2456,-5.2472,-5.2504,-5.2521,-5.2483,-5.2575,-5.2585,-5.268,-5.2716,-5.2733,-5.2751,-5.2709,-5.2867,-5.2882,-5.2896,-5.2945,-5.2964,-5.273,-5.2729,-5.2728,-5.2728,0,-5.2472,-5.2523,-5.2578,-5.261,-5.2639,-5.2703,-5.2687,-5.272,-5.2698,-5.2693,-5.277,-5.2781,-5.2821,-5.2843,-5.2822,-5.2935,-5.2913,-5.2872,-5.2803,-5.2924,-5.2969,-5.2987,-5.2738,-5.2736,-5.2734,-5.2733,0,0,-5.266,-5.268,-5.27,-5.2714,-5.2735,-5.2774,-5.2838,-5.2877,-5.2905,-5.2931,-5.2982,-5.3048,-5.301,-5.3031,-5.3012,-5.306,-5.3175,-5.3013,-5.3013,-5.3041,-5.3299,-5.3328,-5.335,-5.3152,-5.3156,-5.3158,-5.3297,0,-5.2795,-5.2903,-5.2883,-5.2988,-5.3036,-5.299,-5.3045,-5.3064,-5.3062,-5.3102,-5.3101,-5.3147,-5.3095,-5.3107,-5.3152,-5.3151,-5.3226,-5.3141,-5.3199,-5.3201,-5.3192,-5.3374,-5.3404,-5.3534,-5.3315,-5.3318,-5.332,0,-5.2966,-5.2998,-5.3108,-5.3122,-5.3141,-5.3191,-5.3226,-5.3266,-5.3287,-5.3282,-5.3307,-5.328,-5.3344,-5.3277,-5.3364,-5.3307,-5.3331,-5.3334,-5.3339,-5.3341,-5.3265,-5.3378,-5.3575,-5.3593,-5.3347,-5.3345,-5.3343,0,-5.309,-5.3161,-5.3236,-5.325,-5.3269,-5.3305,-5.3314,-5.3332,-5.3358,-5.339,-5.3406,-5.3445,-5.3466,-5.3497,-5.3482,-5.3435,-5.3572,-5.3504,-5.3569,-5.357,-5.3597,-5.3595,-5.3797,-5.3617,-5.3617,-5.3616,-5.3616,0,-5.3241,-5.331,-5.3292,-5.3338,-5.3414,-5.3392,-5.3468,-5.3472,-5.3489,-5.3535,-5.3499,-5.3544,-5.3522,-5.3565,-5.3554,-5.3627,-5.3638,-5.3635,-5.3631,-5.3637,-5.3637,-5.3649,-5.3639,-5.3621,-5.362,-5.3619,-5.3618,0,-5.3391,-5.3382,-5.3461,-5.3473,-5.3478,-5.3533,-5.3543,-5.3587,-5.3584,-5.3643,-5.3656,-5.3651,-5.37,-5.3689,-5.3742,-5.3735,-5.3827,-5.3813,-5.3819,-5.3815,-5.388,-5.3873,-5.4095,-5.4123,-5.3927,-5.3929,-5.393,0,-5.3486,-5.3538,-5.3556,-5.3585,-5.3597,-5.3644,-5.367,-5.3652,-5.3681,-5.371,-5.375,-5.3797,-5.3832,-5.3913,-5.3914,-5.3955,-5.394,-5.4016,-5.3946,-5.3951,-5.3939,-5.3935,-5.394,-5.4028,-5.403,-5.4032,-5.4034,0,-5.3656,-5.3649,-5.3689,-5.3728,-5.3761,-5.379,-5.3817,-5.3842,-5.3826,-5.3861,-5.3911,-5.3939,-5.3995,-5.4041,-5.4079,-5.4089,-5.4059,-5.4056,-5.4073,-5.4078,-5.4079,-5.4078,-5.3854,-5.405,-5.4049,-5.4047,-5.4046,-5.4046,-5.3779,-5.3824,-5.3844,-5.3889,-5.3908,-5.3934,-5.3975,-5.3978,-5.402,-5.4063,-5.405,-5.4107,-5.4129,-5.4178,-5.4193,-5.4238,-5.4209,-5.4234,-5.424,-5.4246,-5.4253,-5.4075,-5.4245,-5.4245,-5.4244,-5.4244,-5.4244,0,-5.3945,-5.3957,-5.3999,-5.4038,-5.4074,-5.4044,-5.4073,-5.4105,-5.4155,-5.4179,-5.4215,-5.4273,-5.4319,-5.4325,-5.4368,-5.4402,-5.439,-5.4414,-5.441,-5.4413,-5.4277,-5.4257,-5.4424,-5.4424,-5.4424,-5.4424,-5.4424,-5.4424,-5.4035,-5.4108,-5.4105,-5.4188,-5.4199,-5.4254,-5.4273,-5.4297,-5.4316,-5.4382,-5.442,-5.4424,-5.4441,-5.4485,-5.4526,-5.4527,-5.4543,-5.4573,-5.4568,-5.444,-5.4422,-5.4405,-5.4386,-5.4577,-5.4577,-5.47,-5.4701,-5.4702]},{"header":{"parameterUnit":"m.s-1","parameterCategory":1,"la1":30.2991,"la2":30.254,"lo1":-89.0895,"lo2":-89.0444,"dy":0.0017,"dx":0.0017,"nx":28,"ny":28,"refTime":"2026-03-03T09:00:00:Z","depth":0,"parameterNumber":3,"parameterNumberName":"V-component_of_WINDS"},"data":[0,0,0,0,0,0,0,0,0,0,0,0,0,0,0,0,0,0,0,0,0,0,0,0,0,0,0,0,0,0,0,0,0,0,0,0,0,0,0,0,0,0,0,0,0,0,0,0,0,0,0,0,0,0,0,0,0,0,1.7789,1.7789,0,1.7839,1.784,1.784,1.7848,1.7848,1.7848,1.7847,1.7898,1.79,1.7901,0,0,0,0,0,0,0,0,0,0,0,0,0,1.7702,1.7704,1.7789,1.7789,1.779,1.7839,1.784,1.784,1.7848,1.7848,1.7847,1.7847,1.7897,1.7899,1.7901,0,0,0,0,0,0,0,0,0,0,0,0,0,1.7745,1.7704,1.7789,1.78,1.7802,1.7839,1.784,1.784,1.7849,1.7848,1.7847,1.7847,1.7897,1.7899,1.7902,1.7931,0,0,1.791,1.7911,0,0,0,0,0,0,0,0,1.7742,1.7748,1.7798,1.7799,1.7801,1.7837,1.7828,1.7871,1.7849,1.7831,1.7847,1.7846,1.7878,1.7882,1.7893,1.7933,1.7935,1.791,1.7912,1.7913,1.7913,0,0,0,0,0,0,0,1.7739,1.7746,1.7809,1.7798,1.7801,1.7803,1.7809,1.7836,1.7857,1.7832,1.7833,1.7839,1.7879,1.789,1.7894,1.7936,1.791,1.7912,1.7914,1.7915,1.8007,1.8008,0,0,0,0,0,0,1.7734,1.7743,1.7807,1.781,1.777,1.7805,1.7811,1.7826,1.7857,1.7861,1.7839,1.7839,1.7886,1.7891,1.7896,1.7935,1.7913,1.7915,1.7917,1.8006,1.8007,1.8008,0,0,0,0,0,0,1.7732,1.774,1.7805,1.7777,1.7785,1.7808,1.7824,1.7827,1.7839,1.7862,1.7866,1.7847,1.7886,1.7892,1.7923,1.7936,1.7916,1.7919,1.8005,1.8006,1.8008,1.801,0,0,0,0,0,0,1.773,1.7739,1.775,1.7777,1.7787,1.783,1.7825,1.7829,1.7843,1.7844,1.7871,1.7875,1.7886,1.7919,1.7926,1.794,1.7921,1.8004,1.8006,1.8007,1.8009,1.8012,1.8014,0,0,0,0,0,1.7727,1.7747,1.775,1.7758,1.78,1.7831,1.7837,1.7849,1.7844,1.7856,1.7872,1.7874,1.7934,1.7922,1.793,1.7944,1.8003,1.8005,1.8007,1.8008,1.8011,1.8014,0,0,0,0,0,0,1.7719,1.7751,1.7754,1.7784,1.7805,1.7832,1.7847,1.7852,1.7874,1.7873,1.7888,1.7894,1.7925,1.7938,1.7924,1.7976,1.7968,1.7972,1.7967,1.797,1.7972,1.7968,1.7923,0,0,0,0,0,1.7722,1.7744,1.777,1.7794,1.7805,1.7824,1.7838,1.7846,1.7868,1.7877,1.7895,1.7916,1.794,1.7956,1.7979,1.8011,1.8019,1.8026,1.8028,1.803,1.8033,1.8054,1.8058,1.8014,1.8014,1.8014,0,0,1.7726,1.7746,1.7758,1.7793,1.781,1.7834,1.7831,1.7855,1.7873,1.788,1.7911,1.7925,1.7951,1.7983,1.7998,1.7995,1.8047,1.8032,1.8033,1.8035,1.8056,1.8061,1.8064,1.8016,1.8016,1.8015,0,0,1.7745,1.7762,1.7785,1.7803,1.783,1.7844,1.7849,1.7877,1.7887,1.7918,1.7925,1.7947,1.7987,1.8006,1.8021,1.8052,1.8056,1.806,1.8071,1.8092,1.8095,1.8098,1.8112,1.8116,1.8062,1.8062,1.8062,0,1.7747,1.7782,1.7797,1.7822,1.7838,1.7847,1.7872,1.7889,1.7921,1.7933,1.7929,1.7982,1.7999,1.8038,1.8046,1.8057,1.8066,1.8056,1.8094,1.8097,1.81,1.8113,1.8118,1.8063,1.8063,1.8063,1.8063,0,1.7784,1.7809,1.7825,1.7858,1.7876,1.79,1.792,1.7937,1.7945,1.7959,1.7993,1.8015,1.8044,1.8054,1.806,1.8094,1.8092,1.8091,1.8083,1.8104,1.8117,1.8122,1.8063,1.8063,1.8063,1.8063,0,0,1.7798,1.7842,1.7847,1.7864,1.7896,1.7916,1.7942,1.7972,1.7987,1.801,1.8034,1.807,1.807,1.8087,1.8097,1.8115,1.8141,1.8112,1.8113,1.8118,1.8183,1.8185,1.819,1.8144,1.8145,1.8146,1.8182,0,1.7823,1.787,1.7886,1.7926,1.795,1.7961,1.7985,1.8008,1.8023,1.8047,1.8063,1.809,1.8087,1.8098,1.8116,1.8134,1.8155,1.8132,1.8168,1.8169,1.8162,1.8196,1.8197,1.8229,1.8186,1.8187,1.8188,0,1.7857,1.7883,1.7925,1.7958,1.7969,1.7989,1.802,1.8042,1.8069,1.8079,1.81,1.8109,1.8139,1.813,1.8173,1.8157,1.8173,1.8185,1.8186,1.819,1.818,1.8202,1.8239,1.8245,1.8195,1.8194,1.8194,0,1.7865,1.791,1.7943,1.7956,1.7994,1.8009,1.8026,1.8052,1.8071,1.8097,1.811,1.8139,1.8156,1.8179,1.8197,1.8188,1.8239,1.8231,1.8249,1.8249,1.8259,1.8258,1.83,1.8268,1.8268,1.8268,1.8268,0,1.7891,1.7917,1.7947,1.7967,1.7998,1.8017,1.8047,1.8064,1.8088,1.8113,1.8124,1.8147,1.8169,1.8195,1.8209,1.8244,1.8251,1.8261,1.8264,1.826,1.8259,1.8271,1.827,1.8269,1.8269,1.8269,1.8268,0,1.7904,1.7925,1.7962,1.7996,1.8006,1.8027,1.8057,1.8078,1.8095,1.8126,1.8134,1.8161,1.8193,1.8213,1.8253,1.8263,1.8302,1.8304,1.8293,1.8294,1.8313,1.8311,1.8364,1.8373,1.8334,1.8334,1.8334,0,1.7919,1.794,1.7978,1.7996,1.8013,1.8041,1.8061,1.8081,1.8101,1.8136,1.8153,1.8186,1.8214,1.8265,1.8288,1.832,1.8324,1.834,1.8328,1.8325,1.8326,1.8325,1.8328,1.8342,1.8342,1.8343,1.8343,0,1.7945,1.7956,1.7983,1.8016,1.8039,1.8066,1.8092,1.8106,1.8131,1.8154,1.8187,1.8209,1.8252,1.8285,1.832,1.8338,1.8345,1.8347,1.8353,1.8349,1.8343,1.8349,1.8299,1.8345,1.8345,1.8345,1.8345,1.8345,1.7961,1.7981,1.8012,1.8044,1.8067,1.8092,1.8114,1.8135,1.8164,1.8201,1.8212,1.8247,1.8278,1.8325,1.8344,1.8374,1.8371,1.838,1.8382,1.8384,1.8386,1.8338,1.838,1.838,1.838,1.838,1.838,0,1.7988,1.801,1.8039,1.8077,1.8103,1.8109,1.8139,1.8161,1.8192,1.822,1.8248,1.8289,1.8322,1.835,1.8385,1.8403,1.8408,1.8412,1.8411,1.8415,1.8385,1.8376,1.8408,1.8408,1.8408,1.8407,1.8407,1.8407,1.8006,1.8042,1.8057,1.8105,1.8126,1.8162,1.818,1.8204,1.8227,1.8272,1.8301,1.8319,1.8347,1.8385,1.8417,1.8425,1.8438,1.8441,1.8449,1.842,1.8417,1.8414,1.8407,1.8444,1.8444,1.8478,1.8478,1.8479]}]]